When you browse on this site, cookies collect data to enhance your experience and personalize the content and advertising you see.
Visit our Privacy Policy to learn more. By continuing to use the site, you agree to this use of cookies and data.
  • En España
  • Lista de países
  • Para 7 días
  • Temperatura del agua
  • El tiempo en el mapa
  • Informadores
  • user-avatar
    Iniciar sesión

    Tiempo cada hora Serowe

    Hoy, 28 Febrero, Viernes

    Tiempo Temperatura Precipitaciones Viento Presión Humedad
    00:00 +22°C° 0 mm 1 mps 665 mmHg 37%
    01:00 +22°C° 0 mm 1 mps 665 mmHg 39%
    02:00 +21°C° 0 mm 1 mps 665 mmHg 42%
    03:00 +21°C° 0 mm 1 mps 665 mmHg 44%
    04:00 +20°C° 0 mm 1 mps 665 mmHg 47%
    05:00 +20°C° 0 mm 1 mps 665 mmHg 50%
    06:00 +21°C° 0 mm 2 mps 666 mmHg 46%
    07:00 +23°C° 0 mm 2 mps 667 mmHg 43%
    08:00 +25°C° 0 mm 2 mps 668 mmHg 39%
    09:00 +27°C° 0 mm 3 mps 668 mmHg 34%
    10:00 +30°C° 0 mm 3 mps 669 mmHg 29%
    11:00 +33°C° 0 mm 4 mps 669 mmHg 24%
    12:00 +34°C° 0 mm 4 mps 669 mmHg 22%
    13:00 +35°C° 0 mm 4 mps 668 mmHg 19%
    14:00 +36°C° 0 mm 4 mps 668 mmHg 16%
    15:00 +36°C° 0 mm 4 mps 667 mmHg 16%
    16:00 +36°C° 0 mm 5 mps 666 mmHg 16%
    17:00 +35°C° 0 mm 5 mps 666 mmHg 16%
    18:00 +33°C° 0 mm 5 mps 666 mmHg 22%
    19:00 +30°C° 0 mm 5 mps 666 mmHg 27%
    20:00 +28°C° 0 mm 5 mps 666 mmHg 32%
    21:00 +26°C° 0 mm 6 mps 667 mmHg 42%
    22:00 +24°C° 0 mm 7 mps 667 mmHg 53%
    23:00 +23°C° 0 mm 8 mps 667 mmHg 63%

    Mañana, 29 Febrero, Sábado

    Tiempo Temperatura Precipitaciones Viento Presión Humedad
    00:00 +22°C° 0 mm 8 mps 668 mmHg 67%
    01:00 +21°C° 0 mm 8 mps 668 mmHg 71%
    02:00 +20°C° 0 mm 8 mps 668 mmHg 76%
    03:00 +20°C° 0 mm 8 mps 668 mmHg 76%
    04:00 +18°C° 0 mm 8 mps 668 mmHg 76%
    05:00 +18°C° 0 mm 8 mps 668 mmHg 75%
    06:00 +18°C° 0 mm 8 mps 668 mmHg 74%
    07:00 +18°C° 0 mm 8 mps 669 mmHg 72%
    08:00 +18°C° 0 mm 8 mps 669 mmHg 71%
    09:00 +20°C° 0 mm 8 mps 670 mmHg 66%
    10:00 +21°C° 0 mm 8 mps 670 mmHg 62%
    11:00 +22°C° 0 mm 8 mps 670 mmHg 58%
    12:00 +24°C° 0 mm 8 mps 670 mmHg 52%
    13:00 +26°C° 0 mm 7 mps 670 mmHg 47%
    14:00 +28°C° 0 mm 7 mps 669 mmHg 42%
    15:00 +28°C° 0 mm 7 mps 669 mmHg 42%
    16:00 +28°C° 0 mm 6 mps 668 mmHg 41%
    17:00 +28°C° 0 mm 6 mps 668 mmHg 41%
    18:00 +26°C° 0 mm 6 mps 668 mmHg 47%
    19:00 +23°C° 0 mm 6 mps 668 mmHg 52%
    20:00 +21°C° 0 mm 5 mps 668 mmHg 57%
    21:00 +21°C° 0 mm 5 mps 669 mmHg 61%
    22:00 +20°C° 0 mm 6 mps 669 mmHg 64%
    23:00 +19°C° 0 mm 6 mps 669 mmHg 68%

    Pasado mañana, 1 Marzo, Domingo

    Tiempo Temperatura Precipitaciones Viento Presión Humedad
    00:00 +17°C° 0 mm 6 mps 669 mmHg 72%
    01:00 +16°C° 0 mm 6 mps 668 mmHg 75%
    02:00 +16°C° 0 mm 6 mps 668 mmHg 79%
    03:00 +15°C° 0 mm 5 mps 668 mmHg 79%
    04:00 +15°C° 0 mm 5 mps 668 mmHg 79%
    05:00 +15°C° 0 mm 5 mps 668 mmHg 80%
    06:00 +15°C° 0 mm 5 mps 668 mmHg 77%
    07:00 +15°C° 0 mm 5 mps 669 mmHg 75%
    08:00 +16°C° 0 mm 6 mps 669 mmHg 72%
    09:00 +19°C° 0 mm 6 mps 669 mmHg 63%
    10:00 +21°C° 0 mm 6 mps 670 mmHg 54%
    11:00 +24°C° 0 mm 6 mps 670 mmHg 45%
    12:00 +26°C° 0 mm 5 mps 670 mmHg 41%
    13:00 +28°C° 0 mm 5 mps 669 mmHg 37%
    14:00 +29°C° 0 mm 4 mps 668 mmHg 33%
    15:00 +29°C° 0 mm 4 mps 668 mmHg 32%
    16:00 +29°C° 0 mm 4 mps 667 mmHg 32%
    17:00 +29°C° 0 mm 4 mps 667 mmHg 32%
    18:00 +27°C° 0 mm 4 mps 667 mmHg 38%
    19:00 +25°C° 0 mm 4 mps 667 mmHg 43%
    20:00 +22°C° 0 mm 4 mps 666 mmHg 48%
    21:00 +21°C° 0 mm 3 mps 667 mmHg 52%
    22:00 +21°C° 0 mm 3 mps 667 mmHg 55%
    23:00 +20°C° 0 mm 3 mps 667 mmHg 59%

    2 Marzo, Lunes

    Tiempo Temperatura Precipitaciones Viento Presión Humedad
    00:00 +19°C° 0 mm 3 mps 667 mmHg 60%
    01:00 +19°C° 0 mm 3 mps 666 mmHg 62%
    02:00 +19°C° 0 mm 3 mps 666 mmHg 63%
    03:00 +18°C° 0 mm 2 mps 666 mmHg 65%
    04:00 +18°C° 0 mm 2 mps 666 mmHg 66%
    05:00 +17°C° 0 mm 2 mps 666 mmHg 67%
    06:00 +18°C° 0 mm 2 mps 667 mmHg 63%
    07:00 +19°C° 0 mm 3 mps 667 mmHg 58%
    08:00 +21°C° 0 mm 3 mps 668 mmHg 53%
    09:00 +22°C° 0 mm 3 mps 668 mmHg 50%
    10:00 +24°C° 0 mm 3 mps 668 mmHg 46%
    11:00 +26°C° 0 mm 2 mps 668 mmHg 42%
    12:00 +26°C° 0 mm 3 mps 668 mmHg 42%
    13:00 +26°C° 0 mm 3 mps 667 mmHg 42%
    14:00 +27°C° 0 mm 3 mps 666 mmHg 41%
    15:00 +28°C° 0 mm 3 mps 666 mmHg 39%
    16:00 +28°C° 0 mm 2 mps 666 mmHg 37%
    17:00 +29°C° 0 mm 2 mps 666 mmHg 34%
    18:00 +28°C° 0 mm 2 mps 666 mmHg 38%
    19:00 +26°C° 0 mm 2 mps 666 mmHg 41%
    20:00 +25°C° 0 mm 2 mps 666 mmHg 44%
    21:00 +24°C° 0 mm 1 mps 666 mmHg 46%
    22:00 +24°C° 0 mm 1 mps 667 mmHg 48%
    23:00 +23°C° 0 mm 1 mps 667 mmHg 49%

    3 Marzo, Martes

    Tiempo Temperatura Precipitaciones Viento Presión Humedad
    00:00 +23°C° 0 mm 1 mps 667 mmHg 50%
    01:00 +23°C° 0 mm 1 mps 667 mmHg 50%
    02:00 +23°C° 0 mm 1 mps 667 mmHg 50%
    03:00 +22°C° 0 mm 1 mps 667 mmHg 54%
    04:00 +22°C° 0 mm 1 mps 667 mmHg 58%
    05:00 +20°C° 0 mm 2 mps 667 mmHg 62%
    06:00 +21°C° 0 mm 2 mps 668 mmHg 61%
    07:00 +21°C° 0 mm 3 mps 668 mmHg 60%
    08:00 +22°C° 0 mm 3 mps 668 mmHg 59%
    09:00 +25°C° 0 mm 3 mps 669 mmHg 51%
    10:00 +28°C° 0 mm 3 mps 669 mmHg 42%
    11:00 +30°C° 0 mm 3 mps 670 mmHg 34%
    12:00 +31°C° 0 mm 3 mps 669 mmHg 32%
    13:00 +33°C° 0 mm 3 mps 669 mmHg 29%
    14:00 +34°C° 0 mm 3 mps 669 mmHg 27%
    15:00 +33°C° 0 mm 3 mps 668 mmHg 29%
    16:00 +32°C° 0 mm 4 mps 668 mmHg 31%
    17:00 +32°C° 0 mm 5 mps 667 mmHg 32%
    18:00 +29°C° 0 mm 4 mps 668 mmHg 37%
    19:00 +27°C° 0 mm 4 mps 668 mmHg 41%
    20:00 +26°C° 0 mm 4 mps 668 mmHg 46%
    21:00 +25°C° 0 mm 4 mps 668 mmHg 50%
    22:00 +23°C° 0 mm 4 mps 669 mmHg 55%
    23:00 +22°C° 0 mm 5 mps 669 mmHg 60%

    4 Marzo, Miércoles

    Tiempo Temperatura Precipitaciones Viento Presión Humedad
    00:00 +21°C° 0 mm 4 mps 669 mmHg 65%
    01:00 +21°C° 0 mm 4 mps 669 mmHg 69%
    02:00 +20°C° 0 mm 4 mps 669 mmHg 74%
    03:00 +20°C° 0 mm 4 mps 669 mmHg 78%
    04:00 +19°C° 0 mm 4 mps 669 mmHg 81%
    05:00 +18°C° 0 mm 4 mps 669 mmHg 85%
    06:00 +19°C° 0 mm 4 mps 670 mmHg 80%
    07:00 +20°C° 0 mm 5 mps 670 mmHg 75%
    08:00 +21°C° 0 mm 5 mps 671 mmHg 70%
    09:00 +23°C° 0 mm 5 mps 671 mmHg 60%
    10:00 +26°C° 0 mm 5 mps 671 mmHg 51%
    11:00 +29°C° 0 mm 5 mps 672 mmHg 41%
    12:00 +30°C° 0 mm 6 mps 671 mmHg 36%
    13:00 +32°C° 0 mm 6 mps 671 mmHg 31%
    14:00 +33°C° 0 mm 6 mps 670 mmHg 26%
    15:00 +33°C° 0 mm 6 mps 670 mmHg 26%
    16:00 +32°C° 0 mm 6 mps 669 mmHg 26%
    17:00 +32°C° 0 mm 5 mps 668 mmHg 26%
    18:00 +28°C° 0 mm 5 mps 668 mmHg 31%
    19:00 +26°C° 0 mm 4 mps 668 mmHg 35%
    20:00 +24°C° 0 mm 3 mps 668 mmHg 40%
    21:00 +22°C° 0 mm 3 mps 669 mmHg 43%
    22:00 +21°C° 0 mm 3 mps 669 mmHg 46%
    23:00 +20°C° 0 mm 2 mps 669 mmHg 49%
    Mostrar más